Wind_Speed
3 3 4 4 4 5 5 6 6 7 8 8 9 10 11 11 12 12 12 12 12 12 12 11 10 10 9 8 8 7 7 8 8 7 7 7 6 6 6 7 7 7 8
2 1 1 2 2 3 3 4 4 5 6 7 8 9 9 10 10 11 11 11 11 11 11 11 10 9 8 8 7 7 6 6 6 6 6 6 6 5 5 5 5 5 6
2 1 1 1 2 2 3 4 4 5 5 6 7 8 8 9 9 10 10 10 10 10 10 10 10 9 8 7 7 6 6 6 5 5 5 5 5 5 4 4 4 4 4
3 3 3 3 3 4 4 4 5 5 5 6 7 7 8 9 9 9 9 10 10 10 10 10 10 9 8 8 7 6 5 5 5 4 4 3 3 3 3 3 3 3 3
5 4 4 4 5 5 5 5 5 6 6 6 7 7 8 9 9 9 9 9 9 10 10 10 10 9 9 8 7 6 6 5 5 4 3 3 2 2 2 2 2 2 2
6 5 5 6 6 6 6 6 6 6 7 7 8 9 9 9 10 10 10 10 10 10 10 10 10 10 9 9 8 7 6 5 5 5 4 3 2 2 1 1 1 1 1
6 6 6 7 7 7 8 8 8 9 9 10 10 11 11 12 12 12 11 11 11 11 11 11 11 11 11 10 9 8 8 7 6 6 6 5 4 3 3 2 2 2 2
7 8 8 8 8 9 10 10 11 12 12 12 13 14 14 14 14 14 13 13 13 13 13 13 13 13 13 12 12 11 11 10 9 8 8 7 6 6 5 5 4 4 3
8 9 9 10 11 11 12 13 13 14 14 15 15 16 16 16 16 16 16 16 16 15 15 15 16 16 16 15 15 14 14 13 12 11 10 10 9 9 8 8 7 6 5
9 10 11 11 12 13 14 14 15 15 16 17 17 18 18 18 18 18 18 18 18 18 18 18 18 19 19 19 19 18 17 16 16 15 14 13 12 12 11 10 10 9 8
11 12 12 13 13 14 15 16 16 17 17 18 18 19 19 19 20 20 20 20 20 20 20 20 20 21 21 22 22 21 21 21 20 19 18 17 16 15 14 14 13 13 12
13 13 14 15 15 16 16 17 18 18 18 19 19 20 20 20 21 21 21 22 22 22 22 22 22 23 23 23 23 23 23 24 24 23 22 21 20 19 18 17 16 16 15
17 17 17 17 18 19 19 19 19 19 20 20 21 21 21 21 22 22 22 23 23 23 23 23 23 23 23 23 24 24 25 24 25 25 25 24 24 23 22 20 19 19 18
19 20 20 20 21 21 22 21 21 21 21 21 21 22 22 22 22 22 23 23 23 23 23 23 22 21 21 22 23 23 24 24 25 26 27 27 27 26 26 24 23 22 22
23 22 22 23 23 23 24 24 23 23 22 21 21 22 22 23 23 23 23 23 23 23 22 21 20 19 19 20 20 21 21 23 24 26 27 28 29 29 28 28 27 26 26
26 26 26 28 27 26 26 26 25 24 23 22 22 22 23 23 23 24 23 23 22 22 21 19 19 18 18 18 18 18 19 20 22 23 24 26 27 29 29 30 30 29 29
30 30 29 31 31 30 30 28 27 25 24 24 24 23 23 24 24 23 22 22 21 20 19 17 17 16 15 16 17 17 18 18 20 21 22 23 25 27 28 29 30 30 31
34 33 33 35 35 34 31 30 28 27 25 24 25 25 24 25 24 23 22 21 20 19 18 17 17 15 15 15 16 16 16 17 18 18 19 21 23 25 26 27 29 29 31
36 35 36 38 37 34 31 31 28 26 26 26 26 27 25 25 24 23 22 21 20 19 18 17 16 15 15 14 14 15 15 15 16 17 18 19 20 22 23 24 26 28 30
35 36 36 33 33 31 32 30 27 26 26 27 28 27 25 24 24 24 24 22 21 20 18 17 16 16 15 14 14 14 15 15 16 17 18 18 19 20 21 22 24 26 28
38 36 34 34 34 32 30 28 26 26 27 28 27 26 25 25 25 24 24 23 22 21 20 19 18 18 17 16 16 15 16 16 16 17 18 19 19 20 21 22 23 25 26
37 37 34 33 30 27 25 24 26 27 27 27 27 26 27 27 25 25 24 24 23 22 22 21 20 20 20 19 18 17 17 18 17 18 18 19 20 20 21 22 23 25 25
36 33 32 30 28 27 25 27 27 26 26 28 27 26 26 26 26 26 26 25 24 24 24 23 22 22 22 22 20 19 19 19 19 20 19 19 20 20 21 22 23 24 25
32 33 32 30 28 30 29 27 26 27 27 28 27 27 27 27 26 25 26 26 26 26 26 25 25 24 24 24 23 22 21 20 20 21 21 21 20 20 21 21 22 23 24
33 32 32 31 30 31 30 29 28 28 29 29 29 29 29 28 27 27 27 27 27 28 28 28 28 27 26 26 25 25 24 23 22 21 22 22 21 20 20 21 22 22 22
34 34 34 34 34 33 33 33 33 33 33 33 32 32 31 30 30 29 28 28 29 30 30 31 30 30 29 28 28 27 26 25 24 23 22 23 23 22 21 21 21 22 22
Wind_Direction
119 104 82 73 65 58 52 43 34 24 14 7 4 3 4 5 8 10 11 13 15 17 18 20 22 26 32 37 41 45 50 56 61 65 68 72 76 79 84 90 94 96 96
157 140 89 62 46 33 25 19 14 9 2 356 352 351 352 353 355 357 359 1 3 6 9 11 11 12 16 22 28 32 37 46 55 62 66 69 72 74 77 80 85 91 95
209 233 272 312 333 339 341 343 345 347 345 342 340 339 339 341 342 343 345 347 349 351 354 358 359 359 360 5 12 18 22 28 38 48 55 59 63 67 70 72 74 78 89
234 256 273 287 299 307 312 316 320 324 327 327 327 327 328 328 329 329 330 332 334 335 338 341 343 344 345 346 351 359 5 10 16 26 38 45 51 56 58 58 59 63 70
237 253 268 281 291 296 298 299 301 306 309 311 311 312 315 317 318 318 317 319 319 320 322 324 327 329 331 333 333 337 342 346 348 351 6 17 22 37 42 40 43 41 36
252 259 272 284 288 289 289 288 290 294 297 299 299 300 302 305 307 307 306 306 306 307 308 310 311 313 314 316 317 318 320 322 321 320 323 331 332 338 355 358 341 346 355
265 268 276 284 286 287 285 284 284 286 288 289 291 292 293 295 297 297 295 295 295 295 296 297 298 299 299 299 301 302 302 302 298 295 293 293 290 287 280 275 279 283 295
271 277 282 283 286 288 288 287 286 284 284 284 286 288 288 289 289 289 287 286 285 286 285 285 286 286 287 286 287 289 289 288 285 279 275 273 269 265 265 264 262 264 278
278 283 287 288 290 292 292 290 288 287 286 285 285 285 284 284 284 284 283 283 281 281 280 278 277 277 277 277 278 279 280 279 277 275 270 266 263 260 258 258 258 258 258
283 288 292 293 294 295 294 293 290 288 287 286 285 283 282 281 281 282 282 281 282 281 279 277 276 273 272 272 272 273 274 274 273 271 269 266 263 259 256 254 254 254 253
283 289 294 296 297 298 297 295 292 290 288 286 285 282 280 280 281 281 282 282 283 282 281 278 276 274 272 271 271 271 270 270 270 269 267 266 263 260 256 254 252 252 251
282 290 295 297 299 299 297 295 293 291 289 287 285 283 282 281 281 281 282 283 283 284 282 280 278 276 274 272 271 271 270 269 268 268 266 264 262 260 256 253 252 250 249
282 289 293 295 297 297 296 295 295 294 293 290 287 286 285 284 283 282 283 284 286 286 285 283 280 279 277 275 273 272 270 269 269 267 264 262 259 257 254 251 249 248 246
282 288 290 291 294 296 296 296 295 295 293 291 289 288 287 286 285 283 282 283 284 285 284 284 280 281 280 280 277 274 270 267 268 267 264 261 259 256 252 250 247 245 244
281 282 284 288 290 292 293 293 293 292 292 290 288 287 286 285 284 284 283 281 281 281 281 282 280 280 281 280 279 278 277 274 270 269 266 264 262 258 253 246 245 244 245
279 279 281 284 283 284 287 288 288 289 288 287 286 285 283 281 280 281 280 279 279 279 278 277 275 276 277 278 279 279 279 278 274 272 271 268 266 263 258 253 248 246 246
278 279 277 279 279 279 280 280 282 284 284 284 284 283 283 282 281 280 278 278 278 278 277 275 273 272 272 277 281 282 283 283 281 277 276 271 268 266 263 258 254 251 249
277 276 275 277 274 274 274 274 277 281 281 284 283 283 283 282 281 279 278 277 276 276 275 274 273 273 273 276 281 287 291 292 287 285 282 277 272 269 266 261 257 255 252
280 275 274 273 269 269 267 266 267 274 280 283 282 282 284 282 280 279 277 275 274 274 273 271 271 272 273 276 282 287 293 295 294 292 288 283 278 274 269 265 261 257 254
280 279 274 269 263 264 263 258 262 273 277 279 279 279 282 281 278 277 275 271 270 271 270 267 267 268 270 275 281 287 292 296 296 296 293 289 283 278 273 269 265 262 255
288 285 273 272 274 267 260 258 266 275 277 277 279 280 281 281 276 274 272 268 267 266 265 264 265 267 270 273 278 284 289 294 297 298 297 293 290 285 279 273 266 262 257
296 291 289 287 283 280 276 269 269 273 276 280 282 281 279 279 278 274 269 266 264 264 262 262 265 268 270 271 275 281 286 291 296 298 298 296 294 288 281 275 268 263 259
300 299 299 299 292 295 296 293 282 283 281 281 280 279 280 279 278 275 269 265 263 261 261 261 264 268 270 270 272 276 281 286 291 295 297 297 296 292 284 277 270 264 261
303 304 302 302 303 301 300 297 292 287 284 282 280 280 278 276 275 272 266 263 262 260 260 261 263 266 268 271 273 276 279 282 285 290 295 297 296 294 288 280 274 269 264
302 304 303 302 301 299 298 297 292 290 286 285 283 281 277 273 270 269 265 262 261 260 261 261 261 263 266 269 272 276 279 281 283 286 290 294 296 295 292 284 277 271 266
300 301 301 300 298 296 293 292 291 289 285 284 283 281 279 274 271 268 265 263 261 261 261 261 262 263 264 267 270 272 276 280 282 284 285 290 294 295 293 288 280 272 265
Height
5924 5923 5922 5922 5921 5920 5920 5919 5919 5919 5918 5918 5917 5916 5914 5913 5912 5910 5909 5907 5906 5904 5903 5901 5900 5899 5897 5897 5896 5895 5894 5893 5893 5892 5892 5891 5891 5890 5890 5890 5890 5890 5889
5924 5923 5923 5922 5921 5921 5920 5920 5919 5919 5918 5917 5917 5916 5915 5913 5912 5911 5909 5908 5906 5905 5903 5902 5900 5899 5898 5897 5896 5896 5895 5894 5893 5893 5892 5892 5891 5891 5890 5890 5890 5890 5890
5924 5923 5923 5922 5922 5921 5920 5920 5919 5918 5918 5917 5916 5915 5914 5913 5911 5910 5909 5907 5906 5904 5903 5902 5900 5899 5898 5898 5897 5896 5895 5894 5894 5893 5892 5892 5891 5891 5891 5891 5891 5890 5890
5923 5923 5922 5922 5921 5921 5920 5919 5918 5918 5917 5916 5915 5914 5913 5912 5910 5909 5908 5907 5905 5904 5903 5901 5900 5899 5898 5897 5897 5896 5895 5894 5894 5893 5892 5892 5891 5891 5891 5891 5891 5891 5891
5923 5922 5922 5921 5920 5920 5919 5918 5917 5917 5916 5915 5914 5913 5912 5911 5909 5908 5907 5906 5904 5903 5902 5900 5899 5898 5897 5896 5896 5895 5895 5894 5893 5892 5892 5892 5891 5891 5891 5891 5891 5891 5891
5922 5921 5921 5920 5919 5919 5918 5917 5916 5915 5914 5913 5912 5911 5910 5909 5908 5906 5905 5904 5903 5902 5900 5899 5898 5897 5896 5895 5894 5894 5894 5893 5892 5892 5891 5891 5891 5890 5890 5890 5890 5890 5890
5921 5920 5920 5919 5918 5917 5917 5916 5914 5913 5912 5911 5910 5909 5908 5906 5905 5904 5903 5902 5901 5900 5899 5898 5897 5896 5895 5894 5893 5893 5892 5892 5891 5891 5890 5890 5889 5889 5889 5889 5890 5890 5890
5919 5919 5918 5917 5917 5916 5915 5913 5912 5911 5910 5908 5907 5906 5905 5903 5902 5901 5900 5899 5898 5897 5896 5895 5894 5893 5893 5892 5891 5891 5890 5890 5889 5889 5889 5888 5888 5888 5888 5888 5888 5888 5888
5918 5917 5916 5915 5914 5913 5912 5911 5909 5908 5906 5905 5903 5902 5901 5899 5898 5897 5896 5895 5894 5894 5893 5892 5891 5890 5890 5889 5888 5888 5888 5887 5887 5887 5886 5886 5886 5886 5886 5886 5886 5886 5887
5916 5915 5914 5913 5912 5910 5909 5907 5906 5904 5902 5901 5899 5898 5896 5895 5894 5893 5892 5891 5890 5889 5889 5888 5887 5886 5886 5885 5885 5884 5884 5884 5884 5884 5883 5883 5883 5883 5883 5883 5884 5884 5884
5914 5913 5912 5910 5909 5907 5905 5903 5902 5900 5898 5896 5895 5893 5892 5890 5889 5888 5887 5886 5885 5884 5884 5883 5882 5882 5881 5880 5880 5880 5880 5879 5880 5880 5880 5880 5880 5880 5880 5881 5881 5881 5882
5911 5910 5908 5907 5905 5903 5901 5899 5897 5895 5893 5891 5890 5888 5887 5885 5884 5883 5882 5881 5880 5879 5879 5878 5877 5876 5876 5875 5874 5874 5874 5874 5874 5875 5875 5875 5875 5876 5876 5877 5877 5878 5878
5908 5906 5904 5903 5901 5899 5897 5894 5892 5890 5888 5887 5885 5883 5882 5880 5879 5878 5876 5875 5874 5874 5873 5872 5872 5871 5870 5870 5869 5868 5868 5868 5868 5868 5869 5869 5869 5870 5870 5871 5872 5873 5874
5904 5902 5900 5898 5896 5894 5892 5890 5888 5886 5884 5882 5880 5878 5877 5875 5874 5873 5872 5870 5869 5868 5868 5867 5866 5866 5865 5864 5863 5863 5862 5862 5862 5862 5862 5862 5862 5863 5863 5864 5865 5867 5869
5900 5897 5894 5893 5891 5889 5887 5884 5883 5881 5879 5877 5875 5873 5872 5870 5869 5867 5866 5865 5864 5863 5862 5862 5861 5860 5860 5858 5857 5857 5856 5855 5855 5855 5855 5855 5855 5855 5855 5856 5858 5860 5862
5894 5893 5890 5886 5884 5882 5880 5878 5877 5875 5874 5872 5870 5868 5867 5865 5863 5862 5861 5860 5859 5858 5857 5857 5856 5855 5855 5854 5853 5852 5851 5850 5849 5849 5848 5848 5848 5848 5849 5850 5850 5853 5855
5886 5884 5882 5880 5876 5874 5872 5871 5869 5869 5867 5865 5863 5862 5860 5858 5857 5856 5855 5854 5853 5852 5852 5852 5851 5850 5850 5849 5848 5847 5846 5844 5843 5843 5842 5842 5841 5841 5842 5842 5843 5845 5847
5876 5874 5873 5871 5867 5864 5862 5862 5860 5860 5859 5857 5856 5854 5853 5851 5850 5849 5848 5848 5847 5846 5846 5846 5845 5845 5845 5844 5844 5842 5841 5839 5838 5837 5836 5836 5835 5835 5835 5835 5836 5837 5839
5866 5864 5861 5859 5855 5853 5850 5851 5851 5851 5851 5850 5848 5847 5846 5844 5843 5843 5842 5842 5842 5841 5841 5841 5841 5841 5840 5840 5839 5838 5836 5835 5833 5832 5830 5830 5829 5829 5828 5828 5829 5830 5832
5856 5852 5848 5846 5842 5842 5839 5839 5840 5842 5843 5843 5842 5840 5839 5837 5836 5836 5836 5836 5836 5836 5836 5836 5836 5836 5836 5835 5835 5834 5832 5830 5829 5827 5825 5824 5823 5823 5822 5822 5822 5823 5824
5848 5844 5837 5836 5832 5829 5829 5829 5832 5834 5835 5834 5833 5833 5832 5831 5830 5829 5830 5830 5830 5830 5831 5831 5831 5831 5831 5831 5831 5830 5828 5826 5824 5822 5821 5819 5818 5817 5816 5816 5816 5816 5817
5843 5838 5833 5830 5826 5823 5820 5822 5824 5826 5827 5826 5827 5827 5826 5825 5823 5823 5823 5824 5824 5825 5825 5825 5826 5826 5826 5826 5826 5825 5824 5822 5820 5818 5816 5814 5813 5811 5810 5809 5810 5810 5811
5836 5830 5827 5826 5823 5821 5819 5820 5820 5820 5820 5820 5820 5820 5819 5818 5817 5817 5816 5817 5817 5818 5819 5819 5819 5820 5820 5820 5820 5820 5819 5818 5816 5813 5811 5809 5807 5806 5804 5804 5804 5804 5804
5832 5827 5824 5821 5819 5818 5817 5816 5814 5813 5813 5813 5812 5811 5810 5810 5810 5809 5809 5809 5810 5811 5811 5812 5812 5813 5813 5813 5813 5813 5813 5812 5811 5809 5806 5804 5802 5800 5799 5798 5798 5798 5798
5828 5824 5820 5817 5815 5813 5811 5810 5809 5807 5806 5805 5804 5803 5802 5801 5801 5801 5801 5801 5802 5802 5803 5803 5804 5805 5806 5806 5806 5806 5806 5806 5805 5804 5802 5799 5797 5795 5793 5792 5792 5792 5792
5821 5817 5814 5811 5809 5807 5804 5803 5801 5799 5798 5796 5795 5794 5793 5793 5792 5792 5792 5793 5793 5793 5794 5794 5795 5796 5797 5798 5798 5799 5799 5798 5798 5798 5797 5794 5792 5789 5788 5787 5786 5786 5786